Weather History for Wolf Point, MT

Change the Weather History Date:

Sunday, October 2, 2011

  Actual Average Record
Temperature  
Mean Temperature 66 °F -  
Max Temperature 82 °F 66 °F 82 °F (2011)
Min Temperature 49 °F 34 °F 17 °F (1999)
Degree Days  
Heating Degree Days 0    
Cooling Degree Days 1    
Growing Degree Days 14 (Base 50)    
Moisture  
Dew Point 46 °F    
Average Humidity 52    
Maximum Humidity 82    
Minimum Humidity 29    
Precipitation  
Precipitation 0.00 in 0.03 in 0.29 in (1998)
Month to date precipitation 0.00 0.05  
Year to date precipitation 17.27 10.73  
Sea Level Pressure  
Sea Level Pressure 29.88 in    
Wind  
Wind Speed 5 mph (West)    
Max Wind Speed 15 mph    
Max Gust Speed 21 mph    
Visibility 10 miles    
Events      
T = Trace of Precipitation, MM = Missing Value Source: NWS Daily Summary

Daily Weather History Graph

Daily Weather History Graph

Search for Another Location

Airport:

Trip Planner

Search our weather history database for the weather conditions in past years. The results will help you decide how hot, cold, wet, or windy it might be!

Date:

Astronomy

Oct. 02, 2011 Rise Set
Actual Time 7:02 AM MDT 6:39 PM MDT
Civil Twilight 6:31 AM MDT 7:10 PM MDT
Nautical Twilight 5:55 AM MDT 7:46 PM MDT
Astronomical Twilight 5:18 AM MDT 8:23 PM MDT
Moon 1:38 PM MDT (10/2) 10:14 PM MDT (10/2)
Length of Visible Light 12h 39m
Length of Day
11h 37m
Waxing Crescent, 35% of the Moon is Illuminated
Oct 2
Waxing Crescent
Oct 3
First Quarter
Oct 11
Full
Oct 19
Last Quarter
Oct 26
New

Hourly Weather History & Observations

Time (MDT) Temp. Dew Point Humidity Pressure Visibility Wind Dir Wind Speed Gust Speed Precip Events Conditions
1:53 AM 60.1 °F 44.1 °F 55% 29.78 in 10.0 mi East 10.4 mph - N/A   Clear
2:53 AM 54.0 °F 43.0 °F 66% 29.82 in 10.0 mi Calm Calm - N/A   Clear
3:53 AM 52.0 °F 42.1 °F 69% 29.81 in 10.0 mi Calm Calm - N/A   Clear
4:53 AM 50.0 °F 42.1 °F 74% 29.82 in 10.0 mi WSW 3.5 mph - N/A   Clear
5:53 AM 54.0 °F 45.0 °F 72% 29.84 in 10.0 mi South 3.5 mph - N/A   Clear
6:53 AM 48.2 °F 42.8 °F 82% 29.86 in 10.0 mi Calm Calm - N/A   Clear
7:53 AM 53.6 °F 44.6 °F 72% 29.86 in 10.0 mi Calm Calm - N/A   Clear
8:53 AM 57.0 °F 46.0 °F 67% 29.88 in 10.0 mi West 9.2 mph - N/A   Clear
9:53 AM 62.6 °F 46.4 °F 55% 29.91 in 10.0 mi WSW 5.8 mph - N/A   Clear
10:53 AM 66.0 °F 46.9 °F 50% 29.89 in 10.0 mi SW 5.8 mph - N/A   Clear
11:53 AM 75.2 °F 44.6 °F 34% 29.88 in 10.0 mi NNW 5.8 mph - N/A   Clear
12:53 PM 80.1 °F 45.0 °F 29% 29.84 in 10.0 mi ENE 5.8 mph - N/A   Clear
1:53 PM 80.1 °F 46.9 °F 31% 29.85 in 10.0 mi South 4.6 mph - N/A   Clear
2:53 PM 79.0 °F 48.0 °F 34% 29.86 in 10.0 mi WSW 5.8 mph - N/A   Partly Cloudy
3:53 PM 81.0 °F 46.9 °F 30% 29.85 in 10.0 mi Calm Calm - N/A   Clear
4:53 PM 78.1 °F 48.9 °F 36% 29.87 in 10.0 mi SW 5.8 mph - N/A   Clear
5:53 PM 75.9 °F 48.9 °F 38% 29.89 in 10.0 mi Calm Calm - N/A   Clear
6:53 PM 71.1 °F 48.0 °F 44% 29.93 in 10.0 mi NW 3.5 mph - N/A   Clear
7:53 PM 70.0 °F 48.0 °F 46% 29.92 in 10.0 mi NNE 15.0 mph 20.7 mph N/A   Clear
8:53 PM 68.0 °F 48.0 °F 49% 29.93 in 10.0 mi East 3.5 mph - N/A   Clear
9:53 PM 64.0 °F 46.9 °F 54% 29.96 in 10.0 mi ENE 6.9 mph - N/A   Clear
10:53 PM 62.6 °F 46.4 °F 55% 29.98 in 10.0 mi North 6.9 mph - N/A   Clear
11:53 PM 62.1 °F 46.9 °F 58% 29.97 in 10.0 mi ENE 3.5 mph - N/A   Clear